Location: Civry
(47.2902°N, 4.6156°E)
Time: 11:29:59
(UTC+00:00)

ISS - Visible Passes

Search period start: 15 July 2020 00:00
Search period end: 25 July 2020 00:00
Orbit: 417 x 419 km, 51.6° (Epoch: 16 July)

Date Brightness Start Highest point End Pass type
(mag) Time Alt. Az. Time Alt. Az. Time Alt. Az.
15 Jul -2.3 00:39:45 10° WNW 00:42:57 39° N 00:46:09 10° ENE visible
15 Jul -3.9 02:16:35 10° WNW 02:19:58 85° SSW 02:23:19 10° ESE visible
15 Jul -3.0 20:38:04 10° SSW 20:41:05 31° SE 20:44:07 10° ENE visible
15 Jul -3.2 22:14:24 10° W 22:17:44 59° NNW 22:21:05 10° ENE visible
15 Jul -2.2 23:51:43 10° WNW 23:54:53 37° N 23:58:03 10° ENE visible
16 Jul -3.5 01:28:38 10° WNW 01:32:00 70° NNE 01:35:20 10° ESE visible
16 Jul -2.7 03:05:44 10° W 03:08:33 25° SW 03:11:20 10° SSE visible
16 Jul -3.7 21:26:23 10° WSW 21:29:45 80° NNW 21:33:07 10° ENE visible
16 Jul -2.2 23:03:37 10° WNW 23:06:48 38° N 23:09:59 10° ENE visible
17 Jul -3.0 00:40:40 10° WNW 00:43:58 53° NNE 00:47:17 10° E visible
17 Jul -3.3 02:17:33 10° WNW 02:20:42 38° SW 02:23:50 10° SE visible
17 Jul -3.9 20:38:25 10° SW 20:41:46 72° SSE 20:45:08 10° ENE visible
17 Jul -2.4 22:15:31 10° W 22:18:43 41° N 22:21:56 10° ENE visible
17 Jul -2.6 23:52:40 10° WNW 23:55:55 44° NNE 23:59:10 10° E visible
18 Jul -3.8 01:29:29 10° WNW 01:37:48 - SE 01:32:41 58° SW visible
18 Jul-1.003:11:32S03:11:32S03:05:09Wvisible
18 Jul -2.7 21:27:22 10° W 21:30:38 48° NNW 21:33:55 10° ENE visible
18 Jul -2.3 23:04:38 10° WNW 23:07:50 39° N 23:10:38 12° ENE visible
19 Jul -2.5 00:41:28 10° WNW 00:43:27 33° WNW 00:43:27 33° WNW visible
19 Jul -3.2 20:39:15 10° W 20:42:35 61° NNW 20:45:56 10° ENE visible
19 Jul -2.2 22:16:33 10° WNW 22:19:43 37° N 22:22:53 10° ENE visible
19 Jul -3.0 23:53:28 10° WNW 23:56:06 49° NW 23:56:06 49° NW visible
20 Jul -2.3 21:28:25 10° WNW 21:31:36 38° N 21:34:46 10° ENE visible
20 Jul -3.0 23:05:27 10° WNW 23:08:46 52° NNE 23:09:08 49° NE visible
21 Jul -2.4 20:40:15 10° W 20:43:28 41° N 20:46:42 10° ENE visible
21 Jul -2.6 22:17:26 10° WNW 22:20:40 43° NNE 22:22:20 24° ENE visible
21 Jul -1.5 23:54:14 10° WNW 23:55:13 18° WNW 23:55:13 18° WNW visible
22 Jul -2.4 21:29:21 10° WNW 21:32:33 39° N 21:35:37 11° ENE visible
22 Jul -2.7 23:06:11 10° WNW 23:08:30 41° WNW 23:08:30 41° WNW visible
23 Jul -2.3 20:41:13 10° WNW 20:44:23 37° N 20:47:33 10° ENE visible
23 Jul -3.5 22:18:08 10° WNW 22:21:30 67° NNE 22:21:51 61° ENE visible
24 Jul -3.0 21:30:05 10° WNW 21:33:23 51° NNE 21:35:14 23° E visible
24 Jul -1.6 23:06:57 10° WNW 23:08:07 19° W 23:08:07 19° W visible
